Theta_e
341 341 339 341 340 342 343 343 344 343 343 343 341 332 339 345 343 346 347 345 344 344
341 341 339 340 339 340 342 346 345 347 345 347 346 343 343 344 345 345 346 345 342 343
341 342 340 341 340 342 345 346 348 346 348 347 347 347 346 344 345 343 344 345 343 342
342 343 340 340 343 345 345 345 347 347 347 346 346 346 345 344 345 345 343 342 342 342
343 343 340 339 344 345 343 342 344 346 346 345 345 344 344 345 347 344 343 345 344 344
343 343 341 341 343 344 345 344 343 342 343 346 346 346 347 346 345 344 344 345 345 345
343 343 344 343 343 344 345 345 345 345 345 345 346 347 347 347 346 345 346 345 345 346
344 343 344 343 344 345 345 345 346 346 346 345 347 349 348 348 346 345 345 345 346 347
344 343 343 344 344 344 344 346 345 346 347 346 350 340 339 344 343 344 344 343 344 346
343 343 344 345 345 345 344 345 345 345 345 345 346 331 332 337 341 341 344 343 343 344
341 344 345 343 345 345 344 344 346 345 344 343 330 326 326 331 334 339 339 340 340 335
339 340 340 341 342 343 340 339 339 340 336 333 330 324 326 330 338 334 329 328 327 328
335 341 341 341 339 340 341 337 334 331 331 327 326 322 324 327 336 328 323 320 319 319
335 336 338 338 339 337 334 330 327 324 325 324 323 320 318 323 329 326 321 318 317 316
Wind_Speed
7 4 5 5 4 4 5 4 4 6 5 5 4 4 3 1 2 2 2 3 2 2
7 7 6 6 5 4 4 4 6 6 6 6 6 6 4 3 3 1 1 2 2 2
8 7 7 5 6 6 5 5 5 7 7 6 6 5 5 4 3 1 1 1 2 1
7 8 6 6 6 6 6 6 6 7 7 7 6 6 6 5 5 4 3 3 3 4
7 7 7 7 6 6 7 5 6 6 6 6 6 5 6 6 5 6 4 4 3 6
10 8 7 7 7 6 6 7 6 5 5 6 6 6 5 6 6 5 5 6 5 6
12 11 10 8 8 7 6 6 6 6 6 7 6 6 6 6 5 5 6 6 6 5
13 11 10 8 8 8 8 7 7 6 6 6 6 5 6 6 6 6 6 6 5 5
10 10 11 10 9 8 8 8 7 7 8 8 6 9 10 7 6 6 6 6 4 4
10 11 11 10 9 10 9 8 9 9 8 8 6 7 8 8 4 5 5 5 5 4
7 10 10 10 12 10 8 10 9 8 7 4 4 3 2 3 4 1 3 3 2 4
5 4 5 9 11 8 5 4 3 3 5 5 4 1 4 4 3 4 5 4 6 3
4 3 7 8 7 5 6 6 6 7 5 5 4 4 8 5 4 5 4 4 5 9
3 5 3 4 3 5 7 9 8 9 5 6 4 4 5 2 4 5 4 4 3 3
Wind_Direction
186 190 210 200 184 199 194 198 202 202 207 218 220 220 243 236 211 222 155 138 202 185
192 192 209 210 194 198 233 210 209 198 195 218 220 204 204 228 232 218 188 179 163 184
205 198 202 191 210 209 236 242 222 196 196 200 219 218 201 200 206 159 286 221 240 215
206 210 198 193 200 211 214 229 224 204 194 193 206 209 199 214 205 216 249 261 261 268
195 209 199 199 209 212 204 210 239 184 181 204 213 214 220 224 218 214 242 270 272 266
194 196 210 201 200 213 203 208 214 211 209 207 208 209 222 224 228 235 237 240 242 264
201 202 205 201 191 199 210 210 216 207 212 213 210 213 225 230 234 240 235 233 231 241
205 196 200 200 202 201 199 210 213 208 217 226 223 218 216 216 223 232 246 243 241 243
194 191 202 207 203 203 204 210 208 213 211 211 216 220 216 203 212 223 230 235 222 255
185 199 204 206 207 208 207 201 202 211 207 215 206 191 195 207 223 240 233 210 190 159
200 201 202 204 208 211 202 205 210 205 206 180 117 121 231 257 247 199 50 57 100 129
252 188 216 211 217 207 192 176 158 133 117 115 102 32 285 282 240 118 86 56 55 57
301 219 208 221 208 181 152 140 122 98 92 115 121 4 296 250 128 129 111 80 73 46
351 302 198 185 185 132 124 109 97 94 85 81 48 36 41 137 125 130 116 107 86 54